Regional Weather Roundup
Issued by NWS

Home | Current Version | Previous Version | Text Only | Print | Product List | Glossary Off
Versions: 1 2 3 4 5 6 7 8 9 10 11 12 13 14 15 16 17 18 19 20 21 22 23 24 25 26 27 28 29 30 31 32 33 34 35 36 37 38 39 40 41 42 43 44 45 46 47 48 49 50

000
ASUS44 KMEG 230500
RWRTN
TENNESSEE HOURLY STATE WEATHER ROUNDUP
NATIONAL WEATHER SERVICE MEMPHIS TN
1200 AM CDT WED APR 23 2014

TNZ002-004-019-021-049-052-054-088>092-230600-
WEST TENNESSEE

CITY           SKY/WX    TMP DP  RH WIND       PRES   REMARKS
MEMPHIS INTL   CLEAR     61  42  49 NE5       29.96R
NWS MEMPHIS      N/A     51 N/A N/A MISG        N/A
JACKSON        CLEAR     56  41  57 NE9       29.97R
DYERSBURG      CLEAR     57  36  44 NE7       29.99R
UNION CITY     CLEAR     55  39  54 NE7       29.97F
LEXINGTON      CLEAR     57  39  51 N6        29.96R
$$

TNZ008-025-027-028-033-062-065-066-230600-
NORTH MIDDLE TENNESSEE

CITY           SKY/WX    TMP DP  RH WIND       PRES   REMARKS
NASHVILLE      CLEAR     58  39  49 N6        29.96R
CLARKSVILLE    CLEAR     52  39  61 NW3       29.96S
COOKEVILLE     CLEAR     57  39  51 CALM      29.93S
CROSSVILLE     CLEAR     56  36  47 NW8       29.94R
$$

TNZ061-075-076-078-094-096-097-230600-
SOUTH MIDDLE TENNESSEE

CITY           SKY/WX    TMP DP  RH WIND       PRES   REMARKS
TULLAHOMA      CLEAR     55  43  62 N9        29.96R
WINCHESTER     CLEAR     59  45  58 NW3       29.94R
MCMINNVILLE    CLEAR     55  43  62 N6        29.95R
COLUMBIA       CLEAR     57  48  72 CALM      29.95R
$$

TNZ017-018-042-046-047-230600-
NORTHEAST TENNESSEE

CITY           SKY/WX    TMP DP  RH WIND       PRES   REMARKS
TRI CITIES     PTCLDY    58  50  75 NW8       29.85S
ELIZABETHTON   PTCLDY    55  55 100 SW6       29.85R
$$

TNZ012-013-036-069-073-074-230600-
CENTRAL EAST TENNESSEE

CITY           SKY/WX    TMP DP  RH WIND       PRES   REMARKS
KNOXVILLE      CLEAR     61  48  62 N5        29.87R
OAK RIDGE      CLEAR     64  41  42 VRB3      29.90R
$$

TNZ083-085-099-230600-
SOUTHEAST TENNESSEE

CITY           SKY/WX    TMP DP  RH WIND       PRES   REMARKS
CHATTANOOGA    CLEAR     63  49  60 N8        29.90R
$$

SKY/WX REPORTED AS FAIR MEANS FEW OR NO CLOUDS BELOW
12 THOUSAND FEET.




USA.gov is the U.S. government's official web portal to all federal, state and local government web resources and services.